Location: Unspecified
(0.0000°N, 0.0000°E)
Time: 19:48:42
(UTC+00:00)

Envisat - Pass Details

Date: 19 January 2018
Orbit: 764 x 766 km, 98.2° (Epoch: 15 July)

Event Time Altitude Azimuth Distance (km) Brightness Sun altitude
Rises 20:43:33 0° 190° (S) 3,229 6.6 -35.5°
Reaches altitude 10° 20:46:11 10° 202° (SSW) 2,301 5.9 -36.0°
Maximum altitude 20:50:20 26° 258° (WSW) 1,473 4.9 -37.0°
Enters shadow 20:50:37 26° 263° (W) 1,477 4.9 -37.0°
